Orbital Elements at Epoch 2459200.5 (2020-Dec-17.0) TDB
Reference: JPL 21 (heliocentric ecliptic J2000)
Element | Value | Uncertainty (1-sigma) | Units |
e | .1932399175363947 | 4.0393e-08 | |
a | 2.422579263317562 | 1.6197e-08 | au |
q | 1.954440246248696 | 9.9687e-08 | au |
i | 3.523223983290296 | 5.775e-06 | deg |
node | 84.34542442031696 | 8.1712e-05 | deg |
peri | 206.5213600840694 | 8.3355e-05 | deg |
M | 209.4193145075637 | 1.6847e-05 | deg |
tp | 2459776.579192470922 (2022-Jul-16.07919247) | 6.5863e-05 | TDB |
period | 1377.258368902491 3.77 | 1.3812e-05 3.782e-08 | d yr |
n | .261388863650091 | 2.6214e-09 | deg/d |
Q | 2.890718280386428 | 1.9327e-08 | au |
|
| | Orbit Determination Parameters
Additional Information
|